Date String (YYYY-MM-DD hh:mm:ss) UTC,Instrument flags,absolute air pressure of the measurement (hPa),sample flow rate (lpm),inlet stack bypass flow (lpm),air temperature of the measurement (°C),ambient temperature measured by the external sensor (°C),aerosol sample conditioner tube jacket temperature (°C),OPC LED temperature (°C),internal box temperature (°C),relative humidity of the measurement (%),span deviation,mass concentration of particles derived from Lorenz-Mie calculation of OPC scattering (μg/m³),mass concentration of particles derived from Lorenz-Mie calculation of OPC scattering (μg/m³),mass concentration of particles derived from Lorenz-Mie calculation of OPC scattering (μg/m³)
DateTimeUTC,F1_M11,P_M11,Q1_M11,Q2_M11,T1_M11,T2_M11,T3_M11,T4_M11,T5_M11,U1_M11,ZSPAN_M11,X2_M11,X0_M11,X1_M11
2023-09-26 12:00:00,SystemResetWarning,0835.3,4.99,000.00,028.7,027.3,000.0,037.2,030.3,11.1,0000.4,0004.75,0015.73,0003.74
2023-09-26 12:01:00,SystemResetWarning,0835.2,5.00,000.00,028.7,027.3,000.0,037.2,030.3,11.1,0000.0,0004.73,0015.04,0003.75
2023-09-26 12:02:00,SystemResetWarning,0835.2,5.00,000.00,028.7,027.3,000.0,037.2,030.3,11.1,0000.0,0004.74,0013.60,0003.76
2023-09-26 12:03:00,SystemResetWarning,0835.3,5.01,000.00,028.7,027.3,000.0,037.2,030.3,11.1,0000.0,0004.78,0013.55,0003.77
2023-09-26 12:04:00,SystemResetWarning,0835.2,5.01,000.00,028.7,027.3,000.0,037.2,030.3,11.1,0000.0,0004.79,0013.59,0003.77
2023-09-26 12:05:00,SystemResetWarning,0835.2,5.00,000.00,028.7,027.3,000.0,037.2,030.3,11.1,0000.0,0004.75,0013.20,0003.76
2023-09-26 12:06:00,SystemResetWarning,0835.2,5.00,000.00,028.7,027.3,000.0,037.2,030.3,11.1,0000.0,0004.70,0012.43,0003.76
2023-09-26 12:07:00,SystemResetWarning,0835.2,5.00,000.00,028.7,027.3,000.0,037.2,030.3,11.0,0000.0,0004.70,0012.60,0003.77
2023-09-26 12:08:00,SystemResetWarning,0835.3,4.99,000.00,028.7,027.3,000.0,037.2,030.3,11.1,0000.0,0004.72,0013.00,0003.78
2023-09-26 12:09:00,SystemResetWarning,0835.2,4.99,000.00,028.7,027.3,000.0,037.2,030.3,11.0,0000.0,0004.75,0013.74,0003.79
2023-09-26 12:10:00,SystemResetWarning,0835.3,5.00,000.00,028.7,027.3,000.0,037.2,030.3,11.1,0000.0,0004.76,0013.30,0003.79
2023-09-26 12:11:00,SystemResetWarning,0835.3,5.00,000.00,028.7,027.3,000.0,037.2,030.3,11.0,0000.0,0004.75,0012.56,0003.79
2023-09-26 12:12:00,SystemResetWarning,0835.3,5.00,000.00,028.7,027.4,000.0,037.2,030.4,11.0,0000.0,0004.79,0012.59,0003.79
2023-09-26 12:13:00,SystemResetWarning,0835.2,5.00,000.00,028.7,027.4,000.0,037.2,030.4,10.9,0000.0,0004.84,0012.90,0003.78
2023-09-26 12:14:00,SystemResetWarning,0835.3,5.00,000.00,028.8,027.4,000.0,037.2,030.4,11.0,0000.0,0004.81,0012.42,0003.78
2023-09-26 12:15:00,SystemResetWarning,0835.3,5.00,000.00,028.8,027.4,000.0,037.2,030.4,11.0,0000.0,0004.84,0012.52,0003.79
2023-09-26 12:16:00,SystemResetWarning,0835.4,5.00,000.00,028.8,027.4,000.0,037.2,030.4,10.9,0000.0,0004.87,0012.10,0003.81
2023-09-26 12:17:00,SystemResetWarning,0835.4,5.00,000.00,028.8,027.4,000.0,037.2,030.4,10.9,0000.0,0004.89,0012.32,0003.83
2023-09-26 12:18:00,SystemResetWarning,0835.3,5.00,000.00,028.8,027.4,000.0,037.2,030.4,10.9,0000.0,0004.89,0012.08,0003.84
2023-09-26 12:19:00,SystemResetWarning,0835.4,5.00,000.00,028.8,027.4,000.0,037.2,030.4,10.9,0000.0,0004.88,0011.88,0003.83
2023-09-26 12:20:00,SystemResetWarning,0835.3,4.99,000.00,028.8,027.4,000.0,037.2,030.4,10.9,0000.0,0004.86,0011.41,0003.83
2023-09-26 12:21:00,SystemResetWarning,0835.3,5.00,000.00,028.8,027.4,000.0,037.2,030.4,10.9,0000.0,0004.84,0012.40,0003.83
2023-09-26 12:22:00,SystemResetWarning,0835.3,5.00,000.00,028.8,027.4,000.0,037.2,030.4,10.9,0000.0,0004.83,0012.37,0003.83
2023-09-26 12:23:00,SystemResetWarning,0835.4,5.00,000.00,028.8,027.4,000.0,037.2,030.4,10.9,0000.0,0004.80,0012.70,0003.82
2023-09-26 12:24:00,SystemResetWarning,0835.4,5.00,000.00,028.8,027.4,000.0,037.3,030.4,10.8,0000.0,0004.72,0013.36,0003.81
2023-09-26 12:25:00,SystemResetWarning,0835.5,4.99,000.00,028.8,027.4,000.0,037.3,030.5,10.9,0000.0,0004.66,0013.27,0003.80
2023-09-26 12:26:00,SystemResetWarning,0835.4,5.00,000.00,028.8,027.5,000.0,037.3,030.5,10.9,0000.0,0004.64,0013.57,0003.80
2023-09-26 12:27:00,SystemResetWarning,0835.4,5.01,000.00,028.9,027.5,000.0,037.3,030.5,10.9,0000.0,0004.61,0013.44,0003.80
2023-09-26 12:28:00,SystemResetWarning,0835.4,5.01,000.00,028.9,027.5,000.0,037.3,030.5,10.9,0000.0,0004.57,0013.35,0003.78
2023-09-26 12:29:00,SystemResetWarning,0835.5,5.01,000.00,028.9,027.5,000.0,037.3,030.5,10.9,0000.0,0004.53,0013.36,0003.76
2023-09-26 12:30:00,SystemResetWarning,0835.5,5.00,000.00,028.9,027.5,000.0,037.3,030.5,10.9,0000.0,0004.48,0013.14,0003.76
2023-09-26 12:31:00,SystemResetWarning,0835.5,4.99,000.00,028.9,027.5,000.0,037.3,030.5,10.9,0000.0,0004.48,0012.81,0003.75
2023-09-26 12:32:00,SystemResetWarning,0835.5,4.99,000.00,028.9,027.5,000.0,037.3,030.5,10.9,0000.0,0004.51,0011.79,0003.74
2023-09-26 12:33:00,SystemResetWarning,0835.5,5.00,000.00,028.9,027.5,000.0,037.3,030.5,10.9,0000.0,0004.59,0011.89,0003.74
2023-09-26 12:34:00,SystemResetWarning,0835.5,5.01,000.00,028.9,027.5,000.0,037.3,030.5,10.9,0000.0,0004.60,0011.70,0003.74
2023-09-26 12:35:00,SystemResetWarning,0835.5,5.01,000.00,028.9,027.5,000.0,037.3,030.5,11.0,0000.0,0004.62,0010.82,0003.74
2023-09-26 12:36:00,SystemResetWarning,0835.5,5.00,000.00,028.9,027.5,000.0,037.3,030.5,11.0,0000.0,0004.69,0011.13,0003.74
2023-09-26 12:37:00,SystemResetWarning,0835.5,4.99,000.00,028.9,027.5,000.0,037.3,030.5,11.0,0000.0,0004.72,0012.18,0003.74
2023-09-26 12:38:00,SystemResetWarning,0835.5,4.99,000.00,028.9,027.5,000.0,037.3,030.5,11.0,0000.0,0004.71,0012.31,0003.73
2023-09-26 12:39:00,SystemResetWarning,0835.5,4.99,000.00,028.9,027.5,000.0,037.3,030.5,11.0,0000.0,0004.76,0012.56,0003.72
2023-09-26 12:40:00,SystemResetWarning,0835.6,5.00,000.00,028.9,027.5,000.0,037.3,030.5,11.0,0000.0,0004.76,0012.51,0003.71
2023-09-26 12:41:00,SystemResetWarning,0835.5,5.01,000.00,028.9,027.5,000.0,037.3,030.5,11.1,0000.0,0004.76,0012.90,0003.70
2023-09-26 12:42:00,SystemResetWarning,0835.5,5.00,000.00,028.9,027.5,000.0,037.3,030.5,11.2,0000.0,0004.75,0013.12,0003.70
2023-09-26 12:43:00,SystemResetWarning,0835.5,5.00,000.00,028.9,027.4,000.0,037.4,030.5,11.2,0000.0,0004.68,0013.16,0003.69
2023-09-26 12:44:00,SystemResetWarning,0835.5,5.00,000.00,028.9,027.4,000.0,037.4,030.4,11.3,0000.0,0004.59,0013.37,0003.70
2023-09-26 12:45:00,SystemResetWarning,0835.5,5.00,000.00,028.9,027.4,000.0,037.3,030.4,11.4,0000.0,0004.64,0014.40,0003.70
2023-09-26 12:46:00,SystemResetWarning,0835.5,5.00,000.00,028.9,027.4,000.0,037.3,030.4,11.3,0000.0,0004.67,0015.27,0003.71
2023-09-26 12:47:00,SystemResetWarning,0835.5,5.00,000.00,028.9,027.4,000.0,037.4,030.4,11.3,0000.0,0004.60,0015.05,0003.71
2023-09-26 12:48:00,SystemResetWarning,0835.5,4.99,000.00,028.9,027.4,000.0,037.4,030.4,11.4,0000.0,0004.61,0014.55,0003.72
2023-09-26 12:49:00,SystemResetWarning,0835.5,4.99,000.00,028.8,027.4,000.0,037.4,030.4,11.4,0000.0,0004.58,0013.93,0003.72
2023-09-26 12:50:00,SystemResetWarning,0835.5,5.00,000.00,028.8,027.4,000.0,037.4,030.4,11.4,0000.0,0004.54,0013.66,0003.71
2023-09-26 12:51:00,SystemResetWarning,0835.6,5.00,000.00,028.8,027.4,000.0,037.4,030.4,11.4,0000.0,0004.60,0013.46,0003.71
2023-09-26 12:52:00,SystemResetWarning,0835.5,5.01,000.00,028.8,027.4,000.0,037.4,030.4,11.4,0000.0,0004.64,0013.30,0003.72
2023-09-26 12:53:00,SystemResetWarning,0835.5,5.01,000.00,028.8,027.4,000.0,037.4,030.4,11.4,0000.0,0004.68,0013.29,0003.73
2023-09-26 12:54:00,SystemResetWarning,0835.5,5.01,000.00,028.8,027.4,000.0,037.4,030.4,11.4,0000.0,0004.72,0013.76,0003.74
2023-09-26 12:55:00,SystemResetWarning,0835.5,4.99,000.00,028.8,027.4,000.0,037.4,030.4,11.5,0000.0,0004.73,0013.19,0003.73
2023-09-26 12:56:00,SystemResetWarning,0835.5,4.99,000.00,028.8,027.4,000.0,037.4,030.4,11.5,0000.0,0004.70,0012.88,0003.73
2023-09-26 12:57:00,SystemResetWarning,0835.5,5.00,000.00,028.8,027.3,000.0,037.3,030.4,11.5,0000.0,0004.65,0012.27,0003.73
2023-09-26 12:58:00,SystemResetWarning,0835.5,5.00,000.00,028.8,027.3,000.0,037.3,030.4,11.5,0000.0,0004.71,0012.05,0003.74
2023-09-26 12:59:00,SystemResetWarning,0835.5,5.01,000.00,028.8,027.3,000.0,037.3,030.3,11.5,0000.0,0004.68,0011.85,0003.75
